This is the latest recevied weather packets stored in our database for station/object F1ZRP-13. If no packets are shown the sender has not sent any weather packets the latest 10 day(s).
| Time | Temp. | Humidity | Pressure | Rain* | Wind** | Luminosity | Snow |
|---|---|---|---|---|---|---|---|
| 1777856461 | 10.56° C | 83% | 1015 hPa | - | - | - | - |
| 1777855440 | 10.56° C | 83% | 1015 hPa | - | - | - | - |
| 1777854504 | 10.56° C | 84% | 1014.9 hPa | - | - | - | - |
| 1777853528 | 10.56° C | 83% | 1014.8 hPa | - | - | - | - |
| 1777852876 | 10.56° C | 83% | 1014.8 hPa | - | - | - | - |
| 1777851950 | 11.11° C | 81% | 1014.7 hPa | - | - | - | - |
| 1777851040 | 11.11° C | 82% | 1014.7 hPa | - | - | - | - |
| 1777850140 | 11.67° C | 82% | 1014.7 hPa | - | - | - | - |
| 1777849253 | 11.11° C | 81% | 1014.7 hPa | - | - | - | - |
| 1777848060 | 11.67° C | 81% | 1014.9 hPa | - | - | - | - |
| 1777847133 | 11.67° C | 80% | 1015 hPa | - | - | - | - |
| 1777846214 | 12.22° C | 80% | 1014.8 hPa | - | - | - | - |
| 1777845341 | 12.22° C | 80% | 1014.8 hPa | - | - | - | - |
| 1777844483 | 12.22° C | 79% | 1014.8 hPa | - | - | - | - |
| 1777843876 | 12.22° C | 79% | 1014.9 hPa | - | - | - | - |
| 1777843117 | 12.22° C | 79% | 1014.8 hPa | - | - | - | - |
| 1777842002 | 12.22° C | 78% | 1014.8 hPa | - | - | - | - |
| 1777841002 | 12.78° C | 77% | 1014.8 hPa | - | - | - | - |
| 1777840062 | 12.78° C | 77% | 1014.8 hPa | - | - | - | - |
| 1777838825 | 12.78° C | 77% | 1014.7 hPa | - | - | - | - |
| 1777837672 | 13.33° C | 76% | 1014.7 hPa | - | - | - | - |
| 1777836822 | 13.89° C | 76% | 1014.8 hPa | - | - | - | - |
| 1777835763 | 13.89° C | 73% | 1014.7 hPa | - | - | - | - |
| 1777834825 | 14.44° C | 73% | 1014.6 hPa | - | - | - | - |
| 1777834054 | 14.44° C | 72% | 1014.6 hPa | - | - | - | - |
* Rain since midnight (hover to see other rain measurements)
** Current wind speed in m/s (hover to see current wind gust speed)